Weather in Mayskoye

Russia / Kamchatka Krai     56°15′16″N   160°03′49″E
temp.,
°C
wind,
m/s
gust,
m/s
humid.,
%
clouds,
%
prec.,
mm/h
press.,
hPa
HPBL,
m
28 february, sun
sun2800:00−13nne7149196 0.7 1016612
03:00−14ne81492100 0.4 1015586
06:00−15ne81593100 0.9 1013594
09:00−14nne91693100 0.6 1013664
12:00−13ne101793100 1.3 1009684
15:00−13ne101893100 0.8 1006651
18:00−14ne91793100 1.7 1001611
21:00−13ne81794100 1.4 999814
1 march, mon
mon100:00−12ne101991100 2.3 9971071
03:00−13ne71591100 1.0 9951046
06:00−13ne61392100 1.8 996632
09:00−12ne5990100 0.3 996480
12:00−10ne3687100 0.3 996472
15:00−9ene1282100 0.1 996344
18:00−9ssw2392100 0.1 996189
21:00−11wsw1291100 0.3 99948
2 march, tue
tue200:00−12wsw2387100 0.4 100160
03:00−14w2384100 0.0 100458
06:00−15nw2283100 0.1 100761
09:00−15wnw1284100 0.1 101176
12:00−12sw3580100 0.1 1014429
15:00−8sw5871100 0.0 10161300
18:00−10ssw367698 0.0 1018182
21:00−15wsw347849 0.0 102344
3 march, wed
wed300:00−14wsw348359 0.0 102688
03:00−16sw2287100 0.0 102745
06:00−17ne1187100 0.0 102620
09:00−16nne3591100 0.0 1023184
12:00−15nne4896100 0.6 1017371
15:00−12nne71390100 1.5 1007802
18:00−13nne81592100 2.7 998694
21:00−13nne71591100 0.7 989563
4 march, thu
thu400:00−9nne51089100 1.1 977405
03:00−6nnw1391100 0.1 971107
06:00−8ssw12186886 1.8 9781035
09:00−13s7166795 0.0 9861158
12:00−11wsw9176297 0.0 9912206
15:00−11sw11206058 0.0 9952570
18:00−11ssw8146570 0.0 9991264
21:00−11ssw7176882 0.0 1000558